Time,TemperatureF,DewpointF,PressureIn,WindDirection,WindDirectionDegrees,WindSpeedMPH,WindSpeedGustMPH,Humidity,HourlyPrecipIn,Conditions,Clouds,dailyrainin,SolarRadiationWatts/m^2,SoftwareType,DateUTC
2013-07-27 00:02:00,63.0,59.0,-100.00,ESE,113,1.0,2.0,88,0.00,,,0.00,0.000000,,2013-07-27 04:02:00,
2013-07-27 00:10:00,62.0,59.0,-100.00,SSE,151,0.0,2.0,91,0.00,,,-99.99,0.000000,,2013-07-27 04:10:00,
2013-07-27 00:43:00,62.0,59.0,-100.00,SSE,151,0.0,2.0,91,0.00,,,-99.99,0.000000,,2013-07-27 04:43:00,
2013-07-27 00:53:00,62.0,59.0,-100.00,SSE,151,0.0,2.0,91,0.00,,,-99.99,0.000000,,2013-07-27 04:53:00,
2013-07-27 01:02:00,62.0,59.0,-100.00,SSE,151,0.0,2.0,91,0.00,,,-99.99,0.000000,,2013-07-27 05:02:00,
2013-07-27 01:10:00,61.0,59.0,-100.00,East,88,2.0,4.0,93,0.00,,,0.00,0.000000,,2013-07-27 05:10:00,
2013-07-27 01:43:00,61.0,59.0,-100.00,East,88,2.0,4.0,93,0.00,,,0.00,0.000000,,2013-07-27 05:43:00,
2013-07-27 01:52:00,61.0,59.0,-100.00,East,88,2.0,4.0,93,0.00,,,0.00,0.000000,,2013-07-27 05:52:00,
2013-07-27 02:02:00,61.0,59.0,-100.00,East,88,2.0,4.0,93,0.00,,,0.00,0.000000,,2013-07-27 06:02:00,
2013-07-27 02:10:00,59.0,57.0,-100.00,SE,129,1.0,2.0,94,0.00,,,0.00,0.000000,,2013-07-27 06:10:00,
2013-07-27 02:43:00,59.0,57.0,-100.00,SE,129,1.0,2.0,94,0.00,,,0.00,0.000000,,2013-07-27 06:43:00,
2013-07-27 02:52:00,59.0,57.0,-100.00,SE,129,1.0,2.0,94,0.00,,,0.00,0.000000,,2013-07-27 06:52:00,
2013-07-27 03:02:00,59.0,57.0,-100.00,SE,129,1.0,2.0,94,0.00,,,0.00,0.000000,,2013-07-27 07:02:00,
2013-07-27 03:10:00,60.0,59.0,-100.00,East,90,0.0,3.0,95,0.00,,,0.00,0.000000,,2013-07-27 07:10:00,
2013-07-27 03:44:00,60.0,59.0,-100.00,East,90,0.0,3.0,95,0.00,,,0.00,0.000000,,2013-07-27 07:44:00,
2013-07-27 03:53:00,60.0,59.0,-100.00,East,90,0.0,3.0,95,0.00,,,0.00,0.000000,,2013-07-27 07:53:00,
2013-07-27 04:02:00,60.0,59.0,-100.00,East,90,0.0,3.0,95,0.00,,,0.00,0.000000,,2013-07-27 08:02:00,
2013-07-27 04:10:00,60.0,58.0,-100.00,ENE,74,0.0,2.0,94,0.00,,,0.00,0.000000,,2013-07-27 08:10:00,
2013-07-27 04:43:00,60.0,58.0,-100.00,ENE,74,0.0,2.0,94,0.00,,,0.00,0.000000,,2013-07-27 08:43:00,
2013-07-27 04:53:00,60.0,58.0,-100.00,ENE,74,0.0,2.0,94,0.00,,,0.00,0.000000,,2013-07-27 08:53:00,
2013-07-27 05:02:00,60.0,58.0,-100.00,ENE,74,0.0,2.0,94,0.00,,,0.00,0.000000,,2013-07-27 09:02:00,
2013-07-27 05:10:00,60.0,58.0,-100.00,ENE,77,1.0,4.0,94,0.00,,,0.00,0.000000,,2013-07-27 09:10:00,
2013-07-27 05:44:00,60.0,58.0,-100.00,ENE,77,1.0,4.0,94,0.00,,,0.00,0.000000,,2013-07-27 09:44:00,
2013-07-27 05:52:00,60.0,58.0,-100.00,ENE,77,1.0,4.0,94,0.00,,,0.00,0.000000,,2013-07-27 09:52:00,
2013-07-27 06:02:00,60.0,58.0,-100.00,ENE,77,1.0,4.0,94,0.00,,,0.00,0.000000,,2013-07-27 10:02:00,
2013-07-27 06:10:00,60.0,58.0,-100.00,ENE,73,0.0,3.0,92,0.00,,,0.00,9.000000,,2013-07-27 10:10:00,
2013-07-27 06:32:00,60.0,58.0,-100.00,ENE,73,0.0,3.0,92,0.00,,,0.00,9.000000,,2013-07-27 10:32:00,
2013-07-27 06:44:00,60.0,58.0,-100.00,ENE,73,0.0,3.0,92,0.00,,,0.00,9.000000,,2013-07-27 10:44:00,
2013-07-27 06:52:00,60.0,58.0,-100.00,ENE,73,0.0,3.0,92,0.00,,,0.00,9.000000,,2013-07-27 10:52:00,
2013-07-27 07:02:00,60.0,58.0,-100.00,ENE,73,0.0,3.0,92,0.00,,,0.00,9.000000,,2013-07-27 11:02:00,
2013-07-27 07:10:00,62.0,59.0,-100.00,NNE,16,1.0,4.0,89,0.00,,,0.00,48.000000,,2013-07-27 11:10:00,
2013-07-27 07:44:00,62.0,59.0,-100.00,NNE,16,1.0,4.0,89,0.00,,,0.00,48.000000,,2013-07-27 11:44:00,
2013-07-27 07:53:00,62.0,59.0,-100.00,NNE,16,1.0,4.0,89,0.00,,,0.00,48.000000,,2013-07-27 11:53:00,
2013-07-27 08:03:00,62.0,59.0,-100.00,NNE,16,1.0,4.0,89,0.00,,,0.00,48.000000,,2013-07-27 12:03:00,
2013-07-27 08:10:00,67.0,61.0,-100.00,WSW,247,3.0,5.0,81,0.00,,,0.00,171.000000,,2013-07-27 12:10:00,
2013-07-27 08:43:00,67.0,61.0,-100.00,WSW,247,3.0,5.0,81,0.00,,,0.00,171.000000,,2013-07-27 12:43:00,
2013-07-27 08:52:00,67.0,61.0,-100.00,WSW,247,3.0,5.0,81,0.00,,,0.00,171.000000,,2013-07-27 12:52:00,
2013-07-27 09:02:00,67.0,61.0,-100.00,WSW,247,3.0,5.0,81,0.00,,,0.00,171.000000,,2013-07-27 13:02:00,
2013-07-27 09:10:00,72.0,62.0,-100.00,SW,226,2.0,5.0,72,0.00,,,0.00,248.000000,,2013-07-27 13:10:00,
2013-07-27 09:44:00,72.0,62.0,-100.00,SW,226,2.0,5.0,72,0.00,,,0.00,248.000000,,2013-07-27 13:44:00,
2013-07-27 09:53:00,72.0,62.0,-100.00,SW,226,2.0,5.0,72,0.00,,,0.00,248.000000,,2013-07-27 13:53:00,
2013-07-27 10:02:00,72.0,62.0,-100.00,SW,226,2.0,5.0,72,0.00,,,0.00,248.000000,,2013-07-27 14:02:00,
2013-07-27 10:10:00,71.0,60.0,-100.00,West,263,2.0,5.0,69,0.00,,,0.00,340.000000,,2013-07-27 14:10:00,
2013-07-27 10:44:00,71.0,60.0,-100.00,West,263,2.0,5.0,69,0.00,,,0.00,340.000000,,2013-07-27 14:44:00,
2013-07-27 10:54:00,71.0,60.0,-100.00,West,263,2.0,5.0,69,0.00,,,0.00,340.000000,,2013-07-27 14:54:00,
2013-07-27 11:02:00,71.0,60.0,-100.00,West,263,2.0,5.0,69,0.00,,,0.00,340.000000,,2013-07-27 15:02:00,
2013-07-27 11:10:00,78.0,64.0,-100.00,SW,216,2.0,4.0,63,0.00,,,0.00,492.000000,,2013-07-27 15:10:00,
2013-07-27 11:44:00,78.0,64.0,-100.00,SW,216,2.0,4.0,63,0.00,,,0.00,492.000000,,2013-07-27 15:44:00,
2013-07-27 11:53:00,78.0,64.0,-100.00,SW,216,2.0,4.0,63,0.00,,,0.00,492.000000,,2013-07-27 15:53:00,
2013-07-27 12:02:00,78.0,64.0,-100.00,SW,216,2.0,4.0,63,0.00,,,0.00,492.000000,,2013-07-27 16:02:00,
2013-07-27 12:10:00,81.0,64.0,-100.00,West,261,3.0,5.0,57,0.00,,,0.00,665.000000,,2013-07-27 16:10:00,
2013-07-27 12:43:00,81.0,64.0,-100.00,West,261,3.0,5.0,57,0.00,,,0.00,665.000000,,2013-07-27 16:43:00,
2013-07-27 12:54:00,81.0,64.0,-100.00,West,261,3.0,5.0,57,0.00,,,0.00,665.000000,,2013-07-27 16:54:00,
2013-07-27 13:02:00,81.0,64.0,-100.00,West,261,3.0,5.0,57,0.00,,,0.00,665.000000,,2013-07-27 17:02:00,
2013-07-27 13:10:00,83.0,61.0,-100.00,SW,217,2.0,7.0,47,0.00,,,0.00,802.000000,,2013-07-27 17:10:00,
2013-07-27 13:32:00,83.0,61.0,-100.00,SW,217,2.0,7.0,47,0.00,,,0.00,802.000000,,2013-07-27 17:32:00,
2013-07-27 13:43:00,83.0,61.0,-100.00,SW,217,2.0,7.0,47,0.00,,,0.00,802.000000,,2013-07-27 17:43:00,
2013-07-27 13:54:00,83.0,61.0,-100.00,SW,217,2.0,7.0,47,0.00,,,0.00,802.000000,,2013-07-27 17:54:00,
2013-07-27 14:03:00,83.0,61.0,-100.00,SW,217,2.0,7.0,47,0.00,,,0.00,802.000000,,2013-07-27 18:03:00,
2013-07-27 14:10:00,83.0,57.0,-100.00,WSW,255,4.0,8.0,41,0.00,,,0.00,784.000000,,2013-07-27 18:10:00,
2013-07-27 14:33:00,83.0,57.0,-100.00,WSW,255,4.0,8.0,41,0.00,,,0.00,784.000000,,2013-07-27 18:33:00,
2013-07-27 14:43:00,83.0,57.0,-100.00,WSW,255,4.0,8.0,41,0.00,,,0.00,784.000000,,2013-07-27 18:43:00,
2013-07-27 14:53:00,83.0,57.0,-100.00,WSW,255,4.0,8.0,41,0.00,,,0.00,784.000000,,2013-07-27 18:53:00,
2013-07-27 15:02:00,83.0,57.0,-100.00,WSW,255,4.0,8.0,41,0.00,,,0.00,784.000000,,2013-07-27 19:02:00,
2013-07-27 15:10:00,85.0,55.0,-100.00,SW,225,2.0,8.0,36,0.00,,,0.00,651.000000,,2013-07-27 19:10:00,
2013-07-27 15:43:00,85.0,55.0,-100.00,SW,225,2.0,8.0,36,0.00,,,0.00,651.000000,,2013-07-27 19:43:00,
2013-07-27 15:53:00,85.0,55.0,-100.00,SW,225,2.0,8.0,36,0.00,,,0.00,651.000000,,2013-07-27 19:53:00,
2013-07-27 16:02:00,85.0,55.0,-100.00,SW,225,2.0,8.0,36,0.00,,,0.00,651.000000,,2013-07-27 20:02:00,
2013-07-27 16:10:00,84.0,53.0,-100.00,WNW,285,5.0,9.0,35,0.00,,,0.00,665.000000,,2013-07-27 20:10:00,
2013-07-27 16:33:00,84.0,53.0,-100.00,WNW,285,5.0,9.0,35,0.00,,,0.00,665.000000,,2013-07-27 20:33:00,
2013-07-27 16:43:00,84.0,53.0,-100.00,WNW,285,5.0,9.0,35,0.00,,,0.00,665.000000,,2013-07-27 20:43:00,
2013-07-27 16:52:00,84.0,53.0,-100.00,WNW,285,5.0,9.0,35,0.00,,,0.00,665.000000,,2013-07-27 20:52:00,
2013-07-27 17:03:00,84.0,53.0,-100.00,WNW,285,5.0,9.0,35,0.00,,,0.00,665.000000,,2013-07-27 21:03:00,
2013-07-27 17:10:00,84.0,56.0,-100.00,SSW,198,2.0,7.0,38,0.00,,,-99.99,441.000000,,2013-07-27 21:10:00,
2013-07-27 17:43:00,84.0,56.0,-100.00,SSW,198,2.0,7.0,38,0.00,,,-99.99,441.000000,,2013-07-27 21:43:00,
2013-07-27 17:53:00,84.0,56.0,-100.00,SSW,198,2.0,7.0,38,0.00,,,-99.99,441.000000,,2013-07-27 21:53:00,
2013-07-27 18:02:00,84.0,56.0,-100.00,SSW,198,2.0,7.0,38,0.00,,,-99.99,441.000000,,2013-07-27 22:02:00,
2013-07-27 18:10:00,81.0,65.0,-100.00,SSW,204,1.0,4.0,58,0.00,,,0.00,188.000000,,2013-07-27 22:10:00,
2013-07-27 18:33:00,81.0,65.0,-100.00,SSW,204,1.0,4.0,58,0.00,,,0.00,188.000000,,2013-07-27 22:33:00,
2013-07-27 18:43:00,81.0,65.0,-100.00,SSW,204,1.0,4.0,58,0.00,,,0.00,188.000000,,2013-07-27 22:43:00,
2013-07-27 18:53:00,81.0,65.0,-100.00,SSW,204,1.0,4.0,58,0.00,,,0.00,188.000000,,2013-07-27 22:53:00,
2013-07-27 19:02:00,81.0,65.0,-100.00,SSW,204,1.0,4.0,58,0.00,,,0.00,188.000000,,2013-07-27 23:02:00,
2013-07-27 19:10:00,75.0,64.0,-100.00,East,99,0.0,5.0,68,0.00,,,0.00,101.000000,,2013-07-27 23:10:00,
2013-07-27 19:44:00,75.0,64.0,-100.00,East,99,0.0,5.0,68,0.00,,,0.00,101.000000,,2013-07-27 23:44:00,
2013-07-27 19:53:00,75.0,64.0,-100.00,East,99,0.0,5.0,68,0.00,,,0.00,101.000000,,2013-07-27 23:53:00,
2013-07-27 20:02:00,75.0,64.0,-100.00,East,99,0.0,5.0,68,0.00,,,0.00,101.000000,,2013-07-28 00:02:00,
2013-07-27 21:10:00,67.0,63.0,-100.00,WNW,288,1.0,2.0,87,-99.99,,,0.00,0.000000,,2013-07-28 01:10:00,
2013-07-27 21:32:00,67.0,63.0,-100.00,WNW,288,1.0,2.0,87,-99.99,,,0.00,0.000000,,2013-07-28 01:32:00,
2013-07-27 21:43:00,67.0,63.0,-100.00,WNW,288,1.0,2.0,87,-99.99,,,0.00,0.000000,,2013-07-28 01:43:00,
2013-07-27 21:53:00,67.0,63.0,-100.00,WNW,288,1.0,2.0,87,-99.99,,,0.00,0.000000,,2013-07-28 01:53:00,
2013-07-27 22:03:00,67.0,63.0,-100.00,WNW,288,1.0,2.0,87,-99.99,,,0.00,0.000000,,2013-07-28 02:03:00,
2013-07-27 22:10:00,64.0,61.0,-100.00,SE,128,0.0,2.0,89,0.00,,,0.00,0.000000,,2013-07-28 02:10:00,
2013-07-27 22:43:00,64.0,61.0,-100.00,SE,128,0.0,2.0,89,0.00,,,0.00,0.000000,,2013-07-28 02:43:00,
2013-07-27 22:53:00,64.0,61.0,-100.00,SE,128,0.0,2.0,89,0.00,,,0.00,0.000000,,2013-07-28 02:53:00,
2013-07-27 23:03:00,64.0,61.0,-100.00,SE,128,0.0,2.0,89,0.00,,,0.00,0.000000,,2013-07-28 03:03:00,
2013-07-27 23:10:00,62.0,60.0,-100.00,ESE,109,1.0,2.0,92,0.00,,,0.00,0.000000,,2013-07-28 03:10:00,
2013-07-27 23:32:00,62.0,60.0,-100.00,ESE,109,1.0,2.0,92,0.00,,,0.00,0.000000,,2013-07-28 03:32:00,
2013-07-27 23:43:00,62.0,60.0,-100.00,ESE,109,1.0,2.0,92,0.00,,,0.00,0.000000,,2013-07-28 03:43:00,
2013-07-27 23:53:00,62.0,60.0,-100.00,ESE,109,1.0,2.0,92,0.00,,,0.00,0.000000,,2013-07-28 03:53:00,